Regional Weather Roundup
Issued by NWS

Home | Current Version | Previous Version | Text Only | Print | Product List | Glossary Off
Versions: 1 2 3 4 5 6 7 8 9 10 11 12 13 14 15 16 17 18 19 20 21 22 23 24 25 26 27 28 29 30 31 32 33 34 35 36 37 38 39 40 41 42 43 44 45 46 47 48 49 50

000
ASUS43 KBIS 040602
RWRND

NORTH DAKOTA REGIONAL WEATHER ROUNDUP
NATIONAL WEATHER SERVICE BISMARCK ND
100 AM CDT SAT JUL 04 2015

NOTE: "FAIR" INDICATES FEW OR NO CLOUDS BELOW 12,000 FEET WITH NO
SIGNIFICANT WEATHER AND/OR OBSTRUCTIONS TO VISIBILITY.


NDZ001>003-009>011-017-040700-
NORTHWEST NORTH DAKOTA

CITY           SKY/WX    TMP DP  RH WIND       PRES   REMARKS
WILLISTON      PTCLDY    74  64  71 S7        29.84F
6HR MIN TEMP:  74; 6HR MAX TEMP:  87;

MINOT          CLEAR     67  64  90 SE6       29.85F FOG
$$

NDZ018>021-031>035-040>046-040700-
SOUTHWEST NORTH DAKOTA

CITY           SKY/WX    TMP DP  RH WIND       PRES   REMARKS
BISMARCK       CLOUDY    67  64  90 SE3       29.91S FOG
6HR MIN TEMP:  66; 6HR MAX TEMP:  80;

DICKINSON      CLEAR     67  63  87 SE10      29.89F FOG
GARRISON         N/A     68  64  87 S6        29.88F
6HR MIN TEMP:  67; 6HR MAX TEMP:  78;

HETTINGER ARPT CLEAR     65  61  87 SE7       29.93S FOG
$$

NDZ004>008-012>016-024-026-027-054-040700-
NORTHEAST NORTH DAKOTA

CITY           SKY/WX    TMP DP  RH WIND       PRES   REMARKS
GRAND FORKS    CLOUDY    62  60  93 CALM      29.89S FOG
GRND FRKS AFB  CLEAR     60  59  96 CALM      29.91R FOG
DEVILS LAKE    CLEAR     70  61  73 SE9       29.90S
$$

NDZ022-023-025-028>030-036>039-047>053-040700-
SOUTHEAST NORTH DAKOTA

CITY           SKY/WX    TMP DP  RH WIND       PRES   REMARKS
FARGO          CLEAR     64  59  83 SE6       29.90S HAZE
6HR MIN TEMP:  63; 6HR MAX TEMP:  80;

JAMESTOWN      CLOUDY    67  63  87 S3        29.91S FOG
$$




USA.gov is the U.S. government's official web portal to all federal, state and local government web resources and services.